Regional Weather Roundup
Issued by NWS

Home | Current Version | Previous Version | Graphics & Text | Print | Product List | Glossary On
Versions: 1 2 3 4 5 6 7 8 9 10 11 12 13 14 15 16 17 18 19 20 21 22 23 24 25 26 27 28 29 30 31 32 33 34 35 36 37 38 39 40 41 42 43 44 45 46 47 48 49 50
000
ASUS43 KMKX 242111
RWRWI

WISCONSIN REGIONAL WEATHER ROUNDUP
NATIONAL WEATHER SERVICE MILWAUKEE/SULLIVAN WI
300 PM CST WED DEC 24 2014

NOTE: "FAIR" INDICATES FEW OR NO CLOUDS BELOW 12,000 FEET WITH NO
SIGNIFICANT WEATHER AND/OR OBSTRUCTIONS TO VISIBILITY.

WIZ001-002-006>008-014>016-023>028-242200-
NORTHWEST WISCONSIN

CITY           SKY/WX    TMP DP  RH WIND       PRES   REMARKS
SUPERIOR ARPT  CLOUDY    36  31  82 W5        29.61S WCI  32
ASHLAND        CLOUDY    33  32  96 CALM      29.60S
HAYWARD        LGT SNOW  34  30  85 VRB5      29.57F FOG     WCI  30
SIREN          CLOUDY    35  31  86 NW6       29.61S WCI  30
CUMBERLAND     CLOUDY    32  30  93 NW6       29.58F WCI  26
RICE LAKE      CLOUDY    35  30  83 NW5       29.60F WCI  31
CHETEK         CLOUDY    34  31  89 CALM      29.58F
LADYSMITH      CLOUDY    35  31  86 NW9       29.59R WCI  28
EAU CLAIRE     CLOUDY    36  30  79 NW9       29.58F WCI  29
MENOMONIE      CLOUDY    37  32  82 NW10      29.60F WCI  29
NEW RICHMOND   CLOUDY    35  34  96 NW7       29.62S WCI  29
OSCEOLA        CLOUDY    36  35  96 NW8       29.65S WCI  29
$$

WIZ003>005-009-010-017-018-242200-
NORTH CENTRAL WISCONSIN

CITY           SKY/WX    TMP DP  RH WIND       PRES   REMARKS
MANITOWISH WTR LGT SNOW  31  30  99 NW6       29.52R WCI  25
ARBOR VITAE    LGT SNOW  32  30  92 N8        29.52R WCI  25
WOODRUFF       LGT SNOW  32  30  92 N8        29.52R WCI  25
RHINELANDER    CLOUDY    31  28  89 VRB5      29.51S WCI  26
EAGLE RIVER    CLOUDY    31  29  94 N6        29.50S WCI  25
LAND O LAKES   CLOUDY    31  29  92 N7        29.51S WCI  24
PHILLIPS       LGT SNOW  32  30  93 NW3       29.54R
TOMAHAWK       CLOUDY    31  29  91 CALM      29.52F
MEDFORD        CLOUDY    32  29  90 NW7       29.53R WCI  26
MERRILL        CLOUDY    32  30  92 N5        29.51F WCI  28
$$

WIZ029-030-035-036-043>047-242200-
CENTRAL WISCONSIN

CITY           SKY/WX    TMP DP  RH WIND       PRES   REMARKS
WAUSAU         CLOUDY    33  30  88 NW8       29.50S WCI  26
MOSINEE        NOT AVBL
MARSHFIELD     CLOUDY    34  29  82 N14       29.52S WCI  25
STEVENS POINT  CLOUDY    32  31  96 NW5       29.51S WCI  27
WAUPACA        LGT RAIN  36  35  96 NW5       29.50S WCI  32
WAUTOMA        CLOUDY    35  35 100 NW7       29.51S WCI  29
WISC RAPIDS    CLOUDY    35  30  82 NW6       29.53S WCI  30
CAMP DOUGLAS   CLOUDY    35  35 100 NW8       29.54S WCI  28
$$

WIZ011>013-019>022-031-037>040-048>050-242200-
NORTHEAST WISCONSIN

CITY           SKY/WX    TMP DP  RH WIND       PRES   REMARKS
ANTIGO         CLOUDY    31  30  95 N7        29.48F FOG     WCI  25
SHAWANO        CLOUDY    36  35  96 N6        29.49S WCI  31
OCONTO         CLOUDY    34  34 100 N6        29.48S WCI  29
STURGEON BAY   CLOUDY    36  32  87 N9        29.48S VSB 1/2 WCI  29
GREEN BAY      CLOUDY    35  34  96 N7        29.48S WCI  29
MANITOWOC      CLOUDY    37  36  96 NW6       29.47F WCI  32
APPLETON         N/A     34  34 100 N7        29.48S FOG     WCI  28
CLINTONVILLE   CLOUDY    34  34 100 N5        29.49S WCI  30
OSHKOSH        CLOUDY    35  33  92 NW6       29.48R WCI  30
$$

WIZ032>034-041-042-053>061-242200-
SOUTHWEST WISCONSIN

CITY           SKY/WX    TMP DP  RH WIND       PRES   REMARKS
LA CROSSE      CLOUDY    37  31  78 NW9       29.58S WCI  30
SPARTA         CLOUDY    35  33  91 NW6       29.58R WCI  30
VIROQUA        CLOUDY    33  33 100 NW9       29.55R WCI  25
BOSCOBEL       CLOUDY    37  32  82 NW5       29.57S WCI  33
PRAIRIE DU CHI CLOUDY    37  31  80 NW9       29.58R WCI  30
PLATTEVILLE    CLOUDY    34  32  92 NW10      29.56R WCI  26
$$

WIZ056-057-062-063-064-067-068-242200-
SOUTH CENTRAL WISCONSIN

CITY           SKY/WX    TMP DP  RH WIND       PRES   REMARKS
REEDSBURG      CLOUDY    33  33  97 NW5       29.53R WCI  29
BARABOO/DELLS  RAIN      33  32  98 NW6       29.52S WCI  27
LONE ROCK      CLOUDY    39  32  76 NW9       29.55R WCI  33
MINERAL POINT  CLOUDY    34  34 100 NW12      29.53S FOG     WCI  25
MADISON        CLOUDY    35  33  92 NW8       29.50R WCI  29
MIDDLETON      CLOUDY    36  36 100 NW6       29.51S WCI  31
WATERTOWN      CLOUDY    35  35 100 NW6       29.49S WCI  30
MONROE         CLOUDY    34  34 100 NW10      29.51R WCI  26
JANESVILLE     CLOUDY    37  36  93 NW7       29.50S FOG     WCI  32
$$

WIZ051-052-058>065-066-070>072-242200-
SOUTHEAST WISCONSIN

CITY           SKY/WX    TMP DP  RH WIND       PRES   REMARKS
MILWAUKEE      CLOUDY    40  34  79 NW7       29.47S
WAUKESHA       CLOUDY    36  34  93 W8        29.48S WCI  29
MILWAUKEE/TIMM CLOUDY    37  34  87 W7        29.48S WCI  32
RACINE         CLOUDY    39  34  82 W12       29.47F WCI  32
BURLINGTON     CLOUDY    36  34  93 NW8       29.48S WCI  29
KENOSHA        CLOUDY    39  35  86 W10       29.46F WCI  32
FOND DU LAC    CLOUDY    35  33  92 NW6       29.49R WCI  30
SHEBOYGAN      CLOUDY    38  34  85 NW7       29.46F WCI  33
WEST BEND      CLOUDY    36  32  87 NW8       29.47S WCI  29
JUNEAU         CLOUDY    34  34  99 W6        29.50S WCI  29
$$

LSZ147-162-242200-
LAKE SUPERIOR

STATION/POSITION TIME  TEMP    WIND        PRES    WAVE
                       AIR SEA DIR/SP/G            HT/PER
                 (UTC) (F)     (DEG/KT/KT) (MB)    (FT/S)
DEVILS ISLAND    1900   33      50/  6/  7 1003.9F
PORT WING        1900   36      30/  4/  6 1003.7F
SAXON HARBOR     1900   33      10/  2/  3 1003.0F
$$

LMZ867-665-643>646-242200-
LAKE MICHIGAN

STATION/POSITION TIME  TEMP    WIND        PRES    WAVE
                       AIR SEA DIR/SP/G            HT/PER
                 (UTC) (F)     (DEG/KT/KT) (MB)    (FT/S)
CHAMBERS ISLAND  1900   35     320/  7/  8  999.7F
NORTHPORT PIER   1900   35     340/  9/ 11  999.3F
SISTER BAY       2013          340/ 15/ 18   N/A
ALGOMA LAKESHORE 2045          340/ 12/ 15   N/A
KEWAUNEE LAKESHO 2000   37     310/  6/  8  997.3F
SHEBOYGAN LAKESH 2000   38 37  340/  8/  9  998.5F
PORT WASHINGTON  1900   40     310/  5/ 11  999.3F
MILWAUKEE LAKESH 2000   40     310/  4/  6   N/A
KENOSHA   LAKESH 1900   39     280/  7/  9  999.0F
$$

TC  - TEMPERATURE IN CELSIUS
VSB - VISIBILITY IN STATUTE MILES
WCI - WIND CHILL INDEX
HX  - HEAT INDEX




USA.gov is the U.S. government's official web portal to all federal, state and local government web resources and services.